CW1259 Weather Reports


time (UTC)temp
F
wind
direction
speed
knots
gust
knots
rain 1hr
in
rain 24hr
in
rain mn
in
humidity
%
barometer
mb
20260506201519 54 182 3.5 8.7 0.05 0.20 0.17 95 1006.1
20260506201325 55 183 2.6 8.7 0.05 0.20 0.17 95 1006.3
20260506200328 55 183 5.2 9.6 0.04 0.18 0.15 95 1006.4
20260506200025 54 180 4.3 8.7 0.04 0.18 0.15 95 1006.1
20260506195331 55 150 3.5 9.6 0.04 0.17 0.14 95 1006.5
20260506194628 54 199 6.1 9.6 0.07 0.17 0.14 94 1006.2
20260506194353 55 242 5.2 10.4 0.08 0.17 0.14 95 1006.5
20260506193325 55 159 4.3 8.7 0.10 0.16 0.13 94 1006.4
20260506193103 54 174 5.2 8.7 0.11 0.16 0.13 94 1006.1
20260506192321 55 204 5.2 12.2 0.13 0.16 0.13 94 1006.4
20260506191521 55 192 7.0 12.2 0.12 0.15 0.12 93 1006.4
20260506191319 55 192 5.2 10.4 0.12 0.15 0.12 93 1006.7
20260506190334 56 200 3.5 7.0 0.11 0.14 0.11 93 1006.8
20260506190020 55 203 3.5 7.0 0.10 0.13 0.10 92 1006.8
20260506185333 56 222 2.6 10.4 0.09 0.12 0.09 92 1007.0
20260506184529 55 208 3.5 10.4 0.06 0.09 0.06 91 1006.6
20260506184334 56 173 4.3 10.4 0.06 0.09 0.06 90 1007.0
20260506183328 57 172 7.0 13.0 0.03 0.06 0.03 89 1006.7
20260506183046 56 178 7.0 13.0 0.01 0.04 0.01 88 1006.3
20260506182347 57 215 4.3 9.6 0.00 0.03 0.00 87 1006.6
20260506181554 57 150 3.5 9.6 0.00 0.03 0.00 86 1006.2
20260506181340 58 152 5.2 9.6 0.00 0.03 0.00 86 1006.5
20260506180322 59 116 6.1 12.2 0.00 0.03 0.00 83 1006.7
20260506180104 59 151 4.3 8.7 0.00 0.03 0.00 83 1006.3
20260506175319 59 192 5.2 8.7 0.00 0.03 0.00 81 1006.6
20260506174525 60 135 4.3 11.3 0.00 0.03 0.00 81 1006.3
20260506174322 60 196 4.3 11.3 0.00 0.03 0.00 80 1006.6
20260506173316 60 189 5.2 9.6 0.00 0.03 0.00 80 1006.7
20260506173040 60 200 3.5 9.6 0.00 0.03 0.00 79 1006.5
20260506172331 61 160 6.1 10.4 0.00 0.03 0.00 80 1007.0
20260506171504 60 173 4.3 8.7 0.00 0.03 0.00 80 1006.9
20260506171323 61 139 6.1 9.6 0.00 0.03 0.00 80 1007.2
20260506170316 61 125 3.5 6.1 0.00 0.03 0.00 81 1007.5
20260506170022 60 165 2.6 9.6 0.00 0.03 0.00 80 1007.1
20260506165333 60 212 4.3 8.7 0.00 0.03 0.00 80 1007.6
20260506164524 60 137 6.1 10.4 0.00 0.03 0.00 80 1007.5
20260506164331 61 141 4.3 10.4 0.00 0.03 0.00 80 1007.9
20260506163323 61 156 6.1 10.4 0.00 0.03 0.00 80 1008.2
20260506163101 60 160 4.3 8.7 0.00 0.03 0.00 80 1007.8
20260506162316 60 193 3.5 6.1 0.00 0.03 0.00 81 1008.2
20260506161508 59 122 1.7 5.2 0.00 0.03 0.00 81 1008.1
20260506161317 60 140 3.5 7.0 0.00 0.03 0.00 81 1008.5
20260506160330 59 155 3.5 6.1 0.00 0.03 0.00 81 1008.5
20260506160025 59 186 3.5 6.1 0.00 0.03 0.00 81 1008.4
20260506155333 59 170 1.7 3.5 0.00 0.03 0.00 81 1008.9
20260506154623 58 159 2.6 7.0 0.00 0.03 0.00 81 1008.6
20260506154329 59 150 4.3 7.0 0.00 0.03 0.00 81 1009.0
20260506153332 59 136 1.7 7.0 0.00 0.03 0.00 81 1008.9
20260506153016 59 142 2.6 7.0 0.00 0.03 0.00 81 1008.5
20260506152327 59 153 2.6 4.3 0.00 0.03 0.00 80 1009.0
20260506151550 59 130 0.9 6.1 0.00 0.03 0.00 81 1008.7
20260506151349 59 118 0.9 6.1 0.00 0.03 0.00 80 1008.9
20260506150346 60 112 1.7 5.2 0.00 0.03 0.00 80 1008.9
20260506150029 59 107 2.6 5.2 0.00 0.03 0.00 80 1008.5
20260506145327 60 130 1.7 5.2 0.00 0.03 0.00 80 1008.7
20260506144602 59 149 2.6 5.2 0.00 0.03 0.00 80 1008.3
20260506144327 60 153 2.6 5.2 0.00 0.03 0.00 80 1008.5
20260506143321 59 198 2.6 4.3 0.00 0.03 0.00 81 1008.3
20260506143020 59 146 0.9 5.2 0.00 0.03 0.00 81 1008.1
20260506142321 59 186 2.6 7.0 0.00 0.03 0.00 82 1008.6
20260506141549 58 144 3.5 7.0 0.00 0.03 0.00 82 1008.3
20260506141315 58 156 3.5 6.1 0.00 0.03 0.00 81 1008.8
20260506140314 58 227 3.5 5.2 0.00 0.03 0.00 83 1009.0
20260506140010 57 196 0.9 4.3 0.00 0.03 0.00 83 1008.8
20260506135317 57 175 1.7 6.1 0.00 0.03 0.00 83 1009.2
20260506134542 56 196 1.7 5.2 0.00 0.03 0.00 83 1008.9
20260506134340 57 163 2.6 5.2 0.00 0.03 0.00 83 1009.2
20260506133333 57 217 1.7 5.2 0.00 0.03 0.00 84 1009.3
20260506133019 56 217 1.7 5.2 0.00 0.03 0.00 84 1009.0
20260506132313 56 210 2.6 5.2 0.00 0.03 0.00 83 1009.2
20260506131550 56 142 1.7 4.3 0.00 0.03 0.00 83 1008.6
20260506131355 56 211 1.7 4.3 0.00 0.03 0.00 83 1009.0
20260506130330 56 194 0.9 6.1 0.00 0.03 0.00 83 1009.2
20260506130051 55 194 3.5 6.1 0.00 0.03 0.00 83 1008.8
20260506125352 56 168 2.6 5.2 0.00 0.03 0.00 84 1009.1
20260506124500 55 140 0.9 5.2 0.00 0.03 0.00 84 1008.8
20260506124327 55 137 2.6 5.2 0.00 0.03 0.00 84 1009.1
20260506123323 55 151 3.5 7.0 0.00 0.03 0.00 85 1009.2
20260506123022 54 140 1.7 3.5 0.00 0.03 0.00 85 1008.9
20260506122344 54 116 1.7 3.5 0.00 0.03 0.00 86 1009.3
20260506121539 53 127 1.7 3.5 0.00 0.03 0.00 88 1009.1
20260506121330 53 128 0.0 3.5 0.00 0.03 0.00 89 1009.5
20260506120343 52 190 1.7 5.2 0.00 0.03 0.00 87 1009.7
20260506120030 52 200 0.9 5.2 0.00 0.03 0.00 87 1009.4
20260506115323 52 131 0.9 3.5 0.00 0.03 0.00 88 1009.7
20260506114607 51 135 1.7 5.2 0.00 0.03 0.00 88 1009.5
20260506114316 52 134 1.7 5.2 0.00 0.03 0.00 88 1009.8
20260506113314 52 174 0.9 6.1 0.00 0.03 0.00 88 1009.9
20260506113022 51 173 2.6 6.1 0.00 0.03 0.00 87 1009.5
20260506112321 51 127 0.9 6.1 0.00 0.03 0.00 87 1010.1
20260506032313 59 165 5.2 7.8 0.00 0.03 0.03 80 1008.1
20260506031504 58 179 3.5 7.8 0.00 0.03 0.03 80 1007.7
20260506031314 59 197 3.5 7.8 0.00 0.03 0.03 80 1008.1
20260506030314 59 213 4.3 7.0 0.00 0.03 0.03 80 1008.4
20260506030022 59 190 3.5 7.8 0.00 0.03 0.03 80 1008.0
20260506025314 59 217 4.3 7.8 0.00 0.03 0.03 81 1008.3
20260506024553 59 204 3.5 7.0 0.00 0.03 0.03 81 1008.1
20260506024328 60 227 3.5 7.0 0.00 0.03 0.03 80 1008.4
20260506023333 59 227 3.5 7.0 0.00 0.03 0.03 81 1008.4
20260506023013 59 229 2.6 7.0 0.00 0.03 0.03 81 1008.1
20260506022329 60 224 2.6 6.1 0.00 0.03 0.03 81 1008.6
20260506021544 59 236 2.6 7.0 0.00 0.03 0.03 82 1008.4
20260506021323 59 218 2.6 7.0 0.00 0.03 0.03 82 1008.7
20260506020325 59 194 2.6 7.0 0.00 0.03 0.03 84 1008.7
20260506020002 59 236 1.7 7.8 0.00 0.03 0.03 84 1008.3
20260506015321 59 200 4.3 8.7 0.00 0.03 0.03 85 1008.8
20260506014536 59 175 4.3 7.0 0.00 0.03 0.03 86 1008.3
20260506014316 59 183 3.5 6.1 0.00 0.03 0.03 86 1008.7
20260506013320 59 214 4.3 7.0 0.00 0.03 0.03 86 1008.8
20260506013057 59 196 3.5 7.0 0.00 0.03 0.03 86 1008.5
20260506012315 59 223 3.5 7.8 0.00 0.03 0.03 86 1008.8
20260506011528 59 180 3.5 8.7 0.00 0.03 0.03 87 1008.2
20260506011336 59 185 3.5 8.7 0.00 0.03 0.03 87 1008.5
20260506010312 59 159 2.6 9.6 0.00 0.03 0.03 88 1008.8
20260506010048 59 225 3.5 9.6 0.00 0.03 0.03 88 1008.4
20260506005327 59 237 6.1 10.4 0.00 0.03 0.03 89 1008.8
20260506004524 58 205 4.3 13.0 0.00 0.03 0.03 90 1008.0
20260506004315 59 205 5.2 13.0 0.00 0.03 0.03 90 1008.4
20260506003329 58 213 4.3 7.0 0.00 0.03 0.03 90 1007.9
20260506003038 57 225 3.5 7.0 0.00 0.03 0.03 91 1007.3
20260506002330 58 259 1.7 3.5 0.01 0.03 0.03 91 1007.4
20260506001507 58 260 1.7 3.5 0.02 0.03 0.03 89 1007.0
20260506001326 58 260 2.6 3.5 0.02 0.03 0.03 89 1007.4
20260506000346 59 300 1.7 2.6 0.02 0.03 0.03 88 1006.9
20260506000003 59 300 1.7 3.5 0.02 0.03 0.03 88 1006.6
20260505235318 60 300 1.7 6.1 0.03 0.03 0.03 87 1007.0
20260505234539 59 225 1.7 8.7 0.03 0.03 0.03 86 1006.4
20260505234313 60 232 4.3 8.7 0.03 0.03 0.03 87 1006.7
20260505233316 60 184 3.5 7.8 0.03 0.03 0.03 87 1007.0
20260505233109 60 345 0.9 3.5 0.03 0.03 0.03 86 1006.4
20260505232328 61 294 0.9 2.6 0.02 0.02 0.02 84 1007.1
20260505231526 62 294 1.7 7.8 0.01 0.01 0.01 80 1006.9
20260505231323 62 296 1.7 7.8 0.01 0.01 0.01 79 1007.3
20260505230317 64 317 7.8 18.2 0.01 0.01 0.01 75 1007.6
20260505230034 63 321 8.7 18.2 0.01 0.01 0.01 74 1007.2
20260505225336 65 331 7.0 17.4 0.00 0.00 0.00 69 1007.3
20260505224501 66 267 10.4 19.1 0.00 0.00 0.00 64 1006.6
20260505224330 67 289 11.3 16.5 0.00 0.00 0.00 63 1006.9
20260505223326 68 238 8.7 14.8 0.00 0.00 0.00 57 1004.6
20260505223022 67 202 7.0 14.8 0.00 0.00 0.00 57 1004.1